When you browse on this site, cookies collect data to enhance your experience and personalize the content and advertising you see.
Visit our Privacy Policy to learn more. By continuing to use the site, you agree to this use of cookies and data.
  • In Hungary
  • List of Countries
  • For 7 days
  • Water Temperature
  • Satellite Maps
  • Weather Map
  • News
  • Weather Widgets
  • user-avatar
    Login

    Hourly Weather Djanet

    Today, 20 February, Wednesday

    Time Temperature Precipitation Wind Pressure Humidity
    00:00 +12°C° 0 mm 3 mps 671 mmHg 17%
    01:00 +12°C° 0 mm 3 mps 671 mmHg 18%
    02:00 +11°C° 0 mm 3 mps 670 mmHg 19%
    03:00 +11°C° 0 mm 3 mps 670 mmHg 19%
    04:00 +10°C° 0 mm 2 mps 670 mmHg 20%
    05:00 +10°C° 0 mm 3 mps 670 mmHg 20%
    06:00 +10°C° 0 mm 3 mps 670 mmHg 21%
    07:00 +10°C° 0 mm 3 mps 670 mmHg 21%
    08:00 +12°C° 0 mm 4 mps 671 mmHg 18%
    09:00 +15°C° 0 mm 5 mps 671 mmHg 15%
    10:00 +17°C° 0 mm 5 mps 672 mmHg 12%
    11:00 +19°C° 0 mm 6 mps 672 mmHg 11%
    12:00 +21°C° 0 mm 7 mps 672 mmHg 11%
    13:00 +22°C° 0 mm 8 mps 672 mmHg 10%
    14:00 +22°C° 0 mm 8 mps 671 mmHg 10%
    15:00 +22°C° 0 mm 8 mps 670 mmHg 9%
    16:00 +22°C° 0 mm 7 mps 670 mmHg 9%
    17:00 +21°C° 0 mm 7 mps 670 mmHg 10%
    18:00 +20°C° 0 mm 6 mps 670 mmHg 11%
    19:00 +19°C° 0 mm 5 mps 670 mmHg 12%
    20:00 +17°C° 0 mm 5 mps 670 mmHg 13%
    21:00 +16°C° 0 mm 5 mps 670 mmHg 14%
    22:00 +15°C° 0 mm 5 mps 671 mmHg 15%
    23:00 +14°C° 0 mm 4 mps 670 mmHg 16%

    Tomorrow, 21 February, Thursday

    Time Temperature Precipitation Wind Pressure Humidity
    00:00 +14°C° 0 mm 3 mps 670 mmHg 17%
    01:00 +13°C° 0 mm 3 mps 670 mmHg 18%
    02:00 +13°C° 0 mm 2 mps 670 mmHg 19%
    03:00 +12°C° 0 mm 2 mps 669 mmHg 20%
    04:00 +11°C° 0 mm 1 mps 669 mmHg 20%
    05:00 +11°C° 0 mm 1 mps 669 mmHg 20%
    06:00 +10°C° 0 mm 1 mps 669 mmHg 20%
    07:00 +10°C° 0 mm 1 mps 670 mmHg 19%
    08:00 +13°C° 0 mm 1 mps 671 mmHg 16%
    09:00 +16°C° 0 mm 1 mps 672 mmHg 12%
    10:00 +20°C° 0 mm 1 mps 674 mmHg 9%
    11:00 +20°C° 0 mm 2 mps 673 mmHg 8%
    12:00 +21°C° 0 mm 2 mps 673 mmHg 8%
    13:00 +22°C° 0 mm 3 mps 673 mmHg 7%
    14:00 +22°C° 0 mm 3 mps 673 mmHg 6%
    15:00 +22°C° 0 mm 3 mps 672 mmHg 6%
    16:00 +24°C° 0 mm 3 mps 672 mmHg 5%
    17:00 +21°C° 0 mm 2 mps 672 mmHg 6%
    18:00 +19°C° 0 mm 2 mps 672 mmHg 7%
    19:00 +18°C° 0 mm 1 mps 672 mmHg 8%
    20:00 +17°C° 0 mm 2 mps 672 mmHg 9%
    21:00 +17°C° 0 mm 2 mps 673 mmHg 9%
    22:00 +17°C° 0 mm 3 mps 673 mmHg 10%
    23:00 +15°C° 0 mm 4 mps 673 mmHg 13%

    Day after tomorrow, 22 February, Friday

    Time Temperature Precipitation Wind Pressure Humidity
    00:00 +14°C° 0 mm 4 mps 673 mmHg 16%
    01:00 +13°C° 0 mm 5 mps 672 mmHg 18%
    02:00 +13°C° 0 mm 5 mps 672 mmHg 19%
    03:00 +13°C° 0 mm 5 mps 672 mmHg 20%
    04:00 +12°C° 0 mm 4 mps 671 mmHg 21%
    05:00 +12°C° 0 mm 4 mps 671 mmHg 21%
    06:00 +11°C° 0 mm 4 mps 672 mmHg 21%
    07:00 +11°C° 0 mm 4 mps 672 mmHg 22%
    08:00 +13°C° 0 mm 5 mps 673 mmHg 19%
    09:00 +15°C° 0 mm 6 mps 673 mmHg 16%
    10:00 +17°C° 0 mm 7 mps 674 mmHg 13%
    11:00 +18°C° 0 mm 7 mps 674 mmHg 13%
    12:00 +20°C° 0 mm 7 mps 674 mmHg 12%
    13:00 +21°C° 0 mm 7 mps 673 mmHg 12%
    14:00 +21°C° 0 mm 8 mps 673 mmHg 12%
    15:00 +21°C° 0 mm 8 mps 672 mmHg 13%
    16:00 +20°C° 0 mm 8 mps 672 mmHg 13%
    17:00 +18°C° 0 mm 8 mps 672 mmHg 16%
    18:00 +17°C° 0 mm 9 mps 672 mmHg 18%
    19:00 +16°C° 0 mm 9 mps 672 mmHg 20%
    20:00 +14°C° 0 mm 10 mps 673 mmHg 22%
    21:00 +13°C° 0 mm 11 mps 673 mmHg 24%
    22:00 +12°C° 0 mm 12 mps 674 mmHg 26%
    23:00 +12°C° 0 mm 12 mps 674 mmHg 28%

    23 February, Saturday

    Time Temperature Precipitation Wind Pressure Humidity
    00:00 +11°C° 0 mm 11 mps 673 mmHg 31%
    01:00 +9°C° 0 mm 11 mps 673 mmHg 33%
    02:00 +9°C° 0 mm 11 mps 673 mmHg 34%
    03:00 +8°C° 0 mm 11 mps 673 mmHg 36%
    04:00 +8°C° 0 mm 10 mps 673 mmHg 38%
    05:00 +7°C° 0 mm 10 mps 673 mmHg 39%
    06:00 +7°C° 0 mm 9 mps 673 mmHg 41%
    07:00 +6°C° 0 mm 9 mps 673 mmHg 42%
    08:00 +8°C° 0 mm 10 mps 674 mmHg 38%
    09:00 +9°C° 0 mm 10 mps 674 mmHg 34%
    10:00 +12°C° 0 mm 11 mps 675 mmHg 30%
    11:00 +13°C° 0 mm 11 mps 675 mmHg 27%
    12:00 +14°C° 0 mm 11 mps 674 mmHg 25%
    13:00 +16°C° 0 mm 10 mps 674 mmHg 23%
    14:00 +16°C° 0 mm 10 mps 674 mmHg 22%
    15:00 +16°C° 0 mm 10 mps 673 mmHg 21%
    16:00 +16°C° 0 mm 9 mps 673 mmHg 21%
    17:00 +15°C° 0 mm 8 mps 673 mmHg 22%
    18:00 +13°C° 0 mm 8 mps 673 mmHg 24%
    19:00 +12°C° 0 mm 7 mps 673 mmHg 26%
    20:00 +11°C° 0 mm 7 mps 673 mmHg 28%
    21:00 +11°C° 0 mm 7 mps 674 mmHg 29%
    22:00 +10°C° 0 mm 7 mps 674 mmHg 30%
    23:00 +9°C° 0 mm 6 mps 674 mmHg 32%

    24 February, Sunday

    Time Temperature Precipitation Wind Pressure Humidity
    00:00 +9°C° 0 mm 6 mps 674 mmHg 34%
    01:00 +8°C° 0 mm 6 mps 673 mmHg 36%
    02:00 +8°C° 0 mm 7 mps 673 mmHg 36%
    03:00 +6°C° 0 mm 7 mps 673 mmHg 36%
    04:00 +6°C° 0 mm 8 mps 673 mmHg 36%
    05:00 +5°C° 0 mm 8 mps 673 mmHg 41%
    06:00 +5°C° 0 mm 7 mps 673 mmHg 45%
    07:00 +4°C° 0 mm 6 mps 673 mmHg 50%
    08:00 +6°C° 0 mm 7 mps 673 mmHg 44%
    09:00 +9°C° 0 mm 8 mps 674 mmHg 38%
    10:00 +11°C° 0 mm 8 mps 674 mmHg 32%
    11:00 +12°C° 0 mm 8 mps 674 mmHg 28%
    12:00 +15°C° 0 mm 9 mps 674 mmHg 24%
    13:00 +16°C° 0 mm 9 mps 674 mmHg 21%
    14:00 +16°C° 0 mm 9 mps 674 mmHg 20%
    15:00 +16°C° 0 mm 10 mps 673 mmHg 19%
    16:00 +16°C° 0 mm 10 mps 673 mmHg 19%
    17:00 +14°C° 0 mm 10 mps 673 mmHg 22%
    18:00 +13°C° 0 mm 9 mps 673 mmHg 25%
    19:00 +11°C° 0 mm 9 mps 673 mmHg 28%
    20:00 +11°C° 0 mm 9 mps 673 mmHg 30%
    21:00 +10°C° 0 mm 9 mps 674 mmHg 32%
    22:00 +9°C° 0 mm 8 mps 674 mmHg 35%
    23:00 +9°C° 0 mm 8 mps 674 mmHg 38%

    25 February, Monday

    Time Temperature Precipitation Wind Pressure Humidity
    00:00 +7°C° 0 mm 9 mps 673 mmHg 41%
    01:00 +6°C° 0 mm 9 mps 673 mmHg 44%
    02:00 +5°C° 0 mm 9 mps 673 mmHg 53%
    03:00 +3°C° 0 mm 9 mps 673 mmHg 61%
    04:00 +3°C° 0 mm 9 mps 673 mmHg 69%
    05:00 +2°C° 0 mm 8 mps 673 mmHg 70%
    06:00 +1°C° 0 mm 8 mps 673 mmHg 70%
    07:00 +1°C° 0 mm 8 mps 674 mmHg 71%
    08:00 +2°C° 0 mm 8 mps 674 mmHg 60%
    09:00 +5°C° 0 mm 9 mps 675 mmHg 49%
    10:00 +6°C° 0 mm 9 mps 675 mmHg 38%
    11:00 +8°C° 0 mm 9 mps 675 mmHg 31%
    12:00 +11°C° 0 mm 9 mps 675 mmHg 25%
    13:00 +13°C° 0 mm 9 mps 674 mmHg 18%
    14:00 +13°C° 0 mm 9 mps 674 mmHg 18%
    15:00 +13°C° 0 mm 9 mps 674 mmHg 17%
    16:00 +13°C° 0 mm 9 mps 673 mmHg 17%
    17:00 +11°C° 0 mm 8 mps 673 mmHg 20%
    18:00 +10°C° 0 mm 8 mps 673 mmHg 23%
    19:00 +8°C° 0 mm 7 mps 673 mmHg 27%
    20:00 +6°C° 0 mm 7 mps 674 mmHg 30%
    21:00 +6°C° 0 mm 7 mps 674 mmHg 32%
    22:00 +5°C° 0 mm 7 mps 674 mmHg 35%
    23:00 +4°C° 0 mm 6 mps 674 mmHg 37%
    Show more